[[{"header":{"parameterUnit":"m.s-1","parameterCategory":1,"la1":30.2991,"la2":30.254,"lo1":-89.0895,"lo2":-89.0444,"dy":0.0017,"dx":0.0017,"nx":28,"ny":28,"refTime":"2025-12-20T09:00:00:Z","depth":0,"parameterNumber":2,"parameterNumberName":"U-component_of_WINDS"},"data":[0,0,0,0,0,0,0,0,0,0,0,0,0,0,0,0,0,0,0,0,0,0,0,0,0,0,0,0,0,0,0,0,0,0,0,0,0,0,0,0,0,0,0,0,0,0,0,0,0,0,0,0,0,0,0,0,0,0,-0.553,-0.5529,0,-0.5489,-0.5488,-0.5488,-0.5471,-0.5471,-0.5471,-0.5471,-0.5431,-0.543,-0.5429,0,0,0,0,0,0,0,0,0,0,0,0,0,-0.5595,-0.5593,-0.553,-0.5529,-0.5529,-0.5489,-0.5488,-0.5488,-0.5471,-0.5471,-0.5471,-0.5471,-0.5432,-0.543,-0.5429,0,0,0,0,0,0,0,0,0,0,0,0,0,-0.5561,-0.5593,-0.553,-0.5515,-0.5514,-0.5489,-0.5488,-0.5487,-0.5471,-0.5471,-0.5471,-0.5471,-0.5432,-0.543,-0.5429,-0.5416,0,0,-0.5423,-0.5423,0,0,0,0,0,0,0,0,-0.5563,-0.5559,-0.5518,-0.5516,-0.5514,-0.5485,-0.5496,-0.5464,-0.547,-0.5487,-0.5471,-0.5471,-0.5449,-0.5446,-0.5438,-0.5414,-0.5412,-0.5423,-0.5422,-0.5422,-0.5421,0,0,0,0,0,0,0,-0.5566,-0.5561,-0.5513,-0.5517,-0.5515,-0.5511,-0.5507,-0.549,-0.5468,-0.5486,-0.5484,-0.5479,-0.5448,-0.544,-0.5437,-0.5412,-0.5423,-0.5422,-0.5421,-0.542,-0.5373,-0.5373,0,0,0,0,0,0,-0.557,-0.5563,-0.5515,-0.5512,-0.5539,-0.551,-0.5505,-0.5494,-0.5468,-0.5464,-0.5479,-0.5479,-0.5443,-0.5439,-0.5436,-0.5417,-0.5422,-0.542,-0.5419,-0.5374,-0.5373,-0.5373,0,0,0,0,0,0,-0.5571,-0.5566,-0.5516,-0.5537,-0.553,-0.5509,-0.5497,-0.5493,-0.5485,-0.5463,-0.546,-0.5475,-0.5443,-0.5438,-0.542,-0.5416,-0.5419,-0.5418,-0.5374,-0.5373,-0.5373,-0.5382,0,0,0,0,0,0,-0.5573,-0.5567,-0.5561,-0.5537,-0.5529,-0.5502,-0.5497,-0.5492,-0.5482,-0.5481,-0.5458,-0.5454,-0.5442,-0.5423,-0.5419,-0.5414,-0.5416,-0.5374,-0.5374,-0.5373,-0.5382,-0.5382,-0.5382,0,0,0,0,0,-0.5576,-0.5566,-0.5561,-0.5555,-0.5522,-0.5501,-0.5497,-0.5482,-0.5481,-0.5476,-0.5462,-0.5455,-0.5417,-0.5421,-0.5416,-0.5411,-0.5374,-0.5374,-0.5373,-0.5382,-0.5382,-0.5382,0,0,0,0,0,0,-0.5592,-0.5563,-0.5557,-0.5539,-0.5523,-0.5499,-0.5491,-0.5483,-0.5467,-0.5467,-0.545,-0.5446,-0.5429,-0.5418,-0.5423,-0.5396,-0.5395,-0.5394,-0.5404,-0.5403,-0.5403,-0.5406,-0.5415,0,0,0,0,0,-0.5593,-0.5578,-0.5554,-0.5541,-0.5533,-0.5513,-0.5504,-0.5494,-0.5476,-0.547,-0.5454,-0.5438,-0.5422,-0.5413,-0.5397,-0.5381,-0.5375,-0.5374,-0.5374,-0.5374,-0.5373,-0.5362,-0.5361,-0.5371,-0.5371,-0.5371,0,0,-0.5597,-0.5579,-0.5571,-0.5544,-0.553,-0.5514,-0.5508,-0.5492,-0.5481,-0.5468,-0.5449,-0.5437,-0.5418,-0.5401,-0.5392,-0.5391,-0.5369,-0.5374,-0.5374,-0.5373,-0.5361,-0.536,-0.536,-0.5371,-0.5371,-0.5371,0,0,-0.5594,-0.558,-0.5566,-0.5552,-0.553,-0.5517,-0.5514,-0.549,-0.5481,-0.5462,-0.5451,-0.5438,-0.5412,-0.5398,-0.5387,-0.5378,-0.537,-0.5373,-0.5373,-0.5363,-0.5362,-0.5361,-0.5356,-0.5355,-0.5372,-0.5372,-0.5372,0,-0.5601,-0.5577,-0.556,-0.5545,-0.5533,-0.5519,-0.5505,-0.5492,-0.5467,-0.5459,-0.5458,-0.5423,-0.541,-0.5388,-0.5385,-0.5378,-0.5373,-0.5376,-0.5363,-0.5362,-0.5361,-0.5356,-0.5355,-0.5373,-0.5372,-0.5372,-0.5372,0,-0.5585,-0.5569,-0.5561,-0.5535,-0.5522,-0.5508,-0.5489,-0.5478,-0.5469,-0.5456,-0.5436,-0.5419,-0.5399,-0.5393,-0.5385,-0.537,-0.537,-0.5366,-0.5365,-0.5361,-0.5356,-0.5354,-0.5373,-0.5373,-0.5373,-0.5373,0,0,-0.5593,-0.5557,-0.5554,-0.5541,-0.5516,-0.5503,-0.5487,-0.5466,-0.5456,-0.544,-0.5426,-0.5403,-0.5398,-0.5387,-0.5377,-0.5367,-0.5359,-0.5365,-0.5364,-0.5363,-0.534,-0.5342,-0.534,-0.5354,-0.5354,-0.5354,-0.5341,0,-0.5586,-0.5556,-0.554,-0.5518,-0.5501,-0.5487,-0.5473,-0.5456,-0.5443,-0.5428,-0.5414,-0.5398,-0.5394,-0.5387,-0.5377,-0.5362,-0.5354,-0.5363,-0.5341,-0.534,-0.5345,-0.5338,-0.534,-0.5329,-0.5339,-0.5339,-0.5339,0,-0.5574,-0.5555,-0.5531,-0.5505,-0.5497,-0.5485,-0.5464,-0.545,-0.5429,-0.5421,-0.5406,-0.5396,-0.5379,-0.5379,-0.5354,-0.5361,-0.5351,-0.5342,-0.5341,-0.5338,-0.5339,-0.5333,-0.5325,-0.5323,-0.5336,-0.5336,-0.5336,0,-0.5581,-0.5549,-0.553,-0.552,-0.549,-0.5481,-0.5468,-0.5448,-0.5436,-0.5418,-0.5409,-0.539,-0.5379,-0.5364,-0.5348,-0.535,-0.5325,-0.5324,-0.5317,-0.5317,-0.5312,-0.5312,-0.5301,-0.5307,-0.5307,-0.5307,-0.5307,0,-0.5574,-0.5559,-0.5532,-0.552,-0.5502,-0.5484,-0.5467,-0.5454,-0.5436,-0.5421,-0.5408,-0.5394,-0.5375,-0.5358,-0.5346,-0.5327,-0.5323,-0.5315,-0.5312,-0.5315,-0.5316,-0.5308,-0.5308,-0.5307,-0.5307,-0.5307,-0.5307,0,-0.5578,-0.5559,-0.5537,-0.5509,-0.5502,-0.549,-0.5467,-0.5455,-0.5441,-0.5422,-0.5416,-0.5394,-0.5375,-0.5357,-0.5332,-0.5324,-0.5303,-0.53,-0.531,-0.5308,-0.5301,-0.5301,-0.5284,-0.528,-0.5289,-0.5289,-0.5289,0,-0.5575,-0.5563,-0.5533,-0.5522,-0.5509,-0.549,-0.5477,-0.5459,-0.5446,-0.5421,-0.5411,-0.539,-0.5372,-0.5341,-0.5323,-0.5303,-0.5299,-0.5294,-0.5296,-0.5299,-0.5297,-0.5297,-0.5295,-0.5293,-0.5293,-0.5293,-0.5293,0,-0.5571,-0.5561,-0.5543,-0.552,-0.5504,-0.5486,-0.5467,-0.5458,-0.5436,-0.5422,-0.5401,-0.5387,-0.5359,-0.5338,-0.5316,-0.5303,-0.5294,-0.5293,-0.529,-0.5293,-0.5299,-0.5294,-0.5308,-0.5293,-0.5293,-0.5293,-0.5293,-0.5293,-0.557,-0.5558,-0.5535,-0.5514,-0.5497,-0.5479,-0.5466,-0.5449,-0.5431,-0.5406,-0.5396,-0.5374,-0.5353,-0.5322,-0.5309,-0.5291,-0.529,-0.5286,-0.5285,-0.5284,-0.5284,-0.5302,-0.5288,-0.5288,-0.5287,-0.5287,-0.5287,0,-0.5564,-0.5548,-0.5529,-0.5502,-0.5485,-0.5477,-0.5455,-0.5442,-0.5422,-0.5403,-0.5385,-0.5359,-0.5338,-0.5318,-0.5296,-0.5286,-0.5281,-0.5281,-0.5281,-0.5278,-0.5287,-0.5291,-0.5285,-0.5285,-0.5285,-0.5285,-0.5285,-0.5285,-0.5559,-0.5537,-0.5525,-0.5495,-0.5479,-0.5456,-0.5444,-0.5427,-0.5411,-0.5383,-0.5365,-0.5352,-0.5331,-0.5307,-0.5288,-0.5282,-0.5274,-0.5275,-0.5268,-0.5277,-0.5277,-0.5278,-0.5282,-0.5273,-0.5273,-0.526,-0.526,-0.526]},{"header":{"parameterUnit":"m.s-1","parameterCategory":1,"la1":30.2991,"la2":30.254,"lo1":-89.0895,"lo2":-89.0444,"dy":0.0017,"dx":0.0017,"nx":28,"ny":28,"refTime":"2025-12-20T09:00:00:Z","depth":0,"parameterNumber":3,"parameterNumberName":"V-component_of_WINDS"},"data":[0,0,0,0,0,0,0,0,0,0,0,0,0,0,0,0,0,0,0,0,0,0,0,0,0,0,0,0,0,0,0,0,0,0,0,0,0,0,0,0,0,0,0,0,0,0,0,0,0,0,0,0,0,0,0,0,0,0,2.7447,2.7447,0,2.7509,2.7509,2.751,2.7532,2.7532,2.7532,2.7532,2.7598,2.76,2.7602,0,0,0,0,0,0,0,0,0,0,0,0,0,2.7353,2.7354,2.7447,2.7448,2.7448,2.7509,2.7509,2.751,2.7533,2.7532,2.7532,2.7532,2.7597,2.76,2.7602,0,0,0,0,0,0,0,0,0,0,0,0,0,2.7402,2.7355,2.7447,2.7467,2.7469,2.7508,2.7509,2.751,2.7533,2.7532,2.7532,2.7532,2.7597,2.76,2.7602,2.7627,0,0,2.7612,2.7613,0,0,0,0,0,0,0,0,2.7399,2.7405,2.7463,2.7465,2.7468,2.7512,2.75,2.755,2.7533,2.7509,2.7532,2.7531,2.757,2.7575,2.7588,2.763,2.7633,2.7612,2.7614,2.7615,2.7616,0,0,0,0,0,0,0,2.7396,2.7403,2.7471,2.7464,2.7467,2.7474,2.7481,2.751,2.7541,2.7511,2.7512,2.7519,2.7571,2.7585,2.7589,2.7634,2.7612,2.7614,2.7616,2.7617,2.7703,2.7704,0,0,0,0,0,0,2.7388,2.74,2.7469,2.7473,2.7432,2.7476,2.7483,2.7499,2.754,2.7546,2.7519,2.752,2.758,2.7586,2.7592,2.7625,2.7615,2.7618,2.7619,2.7703,2.7704,2.7704,0,0,0,0,0,0,2.7386,2.7394,2.7467,2.7437,2.7447,2.7478,2.7495,2.75,2.7513,2.7547,2.7553,2.7527,2.758,2.7588,2.7619,2.7628,2.7619,2.7622,2.7702,2.7703,2.7704,2.7691,0,0,0,0,0,0,2.7383,2.7393,2.7402,2.7437,2.7448,2.7491,2.7495,2.7501,2.7518,2.7519,2.7556,2.7561,2.758,2.7614,2.7622,2.7632,2.7624,2.7702,2.7703,2.7704,2.7691,2.7692,2.7692,0,0,0,0,0,2.738,2.7396,2.7402,2.741,2.7459,2.7492,2.7498,2.7519,2.7518,2.7528,2.755,2.756,2.7625,2.7617,2.7626,2.7637,2.7701,2.7702,2.7704,2.7691,2.7692,2.7692,0,0,0,0,0,0,2.7362,2.7401,2.7408,2.7436,2.746,2.7495,2.7508,2.7518,2.7544,2.7545,2.757,2.7578,2.7608,2.7625,2.7615,2.7665,2.7664,2.7667,2.7652,2.7653,2.7653,2.7649,2.7626,0,0,0,0,0,2.7361,2.7382,2.7416,2.7437,2.7449,2.7477,2.7492,2.7505,2.7532,2.7543,2.7567,2.7593,2.762,2.7637,2.7664,2.7694,2.7703,2.7706,2.7707,2.7707,2.7709,2.7729,2.7731,2.7708,2.7708,2.7708,0,0,2.7359,2.7383,2.7396,2.7434,2.7455,2.7479,2.7485,2.7509,2.7528,2.7547,2.7578,2.7597,2.7628,2.7659,2.7674,2.7675,2.7718,2.7708,2.7708,2.7711,2.773,2.7733,2.7735,2.7709,2.7709,2.7709,0,0,2.7369,2.7388,2.7409,2.743,2.7461,2.7479,2.7484,2.7519,2.7532,2.7563,2.7579,2.7602,2.7646,2.7669,2.7686,2.7707,2.7718,2.7715,2.7717,2.7736,2.7738,2.774,2.7749,2.7752,2.7717,2.7717,2.7717,0,2.7363,2.7398,2.7419,2.7443,2.746,2.7478,2.7501,2.752,2.7559,2.7571,2.7571,2.763,2.7652,2.769,2.7695,2.7708,2.7716,2.7711,2.7736,2.7738,2.774,2.7749,2.7752,2.7717,2.7717,2.7717,2.7717,0,2.7391,2.7415,2.7429,2.7465,2.7484,2.7507,2.7533,2.755,2.7563,2.7582,2.7615,2.7643,2.7676,2.7686,2.7698,2.7727,2.7726,2.7731,2.7731,2.7742,2.7751,2.7754,2.7716,2.7716,2.7716,2.7716,0,0,2.7389,2.7438,2.7443,2.7461,2.7497,2.7517,2.7542,2.7574,2.7589,2.7616,2.7639,2.7677,2.7683,2.7702,2.7718,2.7734,2.7751,2.7737,2.7738,2.774,2.7786,2.7783,2.7787,2.7758,2.7759,2.776,2.7784,0,2.7405,2.7449,2.7469,2.7505,2.7529,2.7548,2.757,2.7596,2.7615,2.7639,2.7661,2.7688,2.7692,2.7705,2.7722,2.7745,2.7761,2.7744,2.7782,2.7783,2.7774,2.7791,2.7788,2.781,2.7788,2.7788,2.7789,0,2.7428,2.7454,2.7492,2.7528,2.7539,2.7558,2.7591,2.7613,2.7644,2.7657,2.768,2.7695,2.7724,2.7722,2.7764,2.7752,2.7769,2.7783,2.7785,2.779,2.7787,2.7798,2.7817,2.7821,2.7794,2.7794,2.7793,0,2.7425,2.747,2.7499,2.7514,2.7556,2.7569,2.7588,2.7618,2.7637,2.7666,2.7679,2.771,2.7728,2.7753,2.7778,2.7774,2.7818,2.7818,2.7831,2.7831,2.784,2.784,2.7863,2.7849,2.7849,2.7849,2.7849,0,2.744,2.7463,2.7499,2.7517,2.7544,2.7568,2.7595,2.7615,2.7642,2.7666,2.7684,2.7707,2.7737,2.7764,2.7783,2.7816,2.7824,2.7836,2.7841,2.7835,2.7834,2.7847,2.7847,2.785,2.785,2.785,2.7849,0,2.7441,2.7465,2.7499,2.7537,2.7547,2.7565,2.7598,2.7618,2.7638,2.7668,2.7677,2.771,2.7742,2.7769,2.7812,2.7825,2.786,2.7865,2.7849,2.7852,2.7865,2.7864,2.7899,2.7906,2.7886,2.7886,2.7886,0,2.7449,2.7467,2.7507,2.7524,2.7543,2.7569,2.7589,2.7615,2.7635,2.7672,2.7688,2.7722,2.775,2.7802,2.783,2.7864,2.7871,2.7881,2.7876,2.787,2.7873,2.7872,2.7875,2.7882,2.7882,2.7882,2.7882,0,2.7462,2.7474,2.7501,2.7533,2.7555,2.7582,2.7609,2.7622,2.7653,2.7675,2.7708,2.7731,2.7775,2.7809,2.7846,2.7867,2.7881,2.7883,2.7888,2.7883,2.7874,2.7881,2.7852,2.7882,2.7882,2.7882,2.7882,2.7882,2.7468,2.7486,2.7517,2.7547,2.7571,2.7596,2.7617,2.764,2.7668,2.7706,2.772,2.7755,2.7788,2.7839,2.786,2.789,2.7891,2.7898,2.79,2.7902,2.7902,2.7868,2.7896,2.7896,2.7896,2.7896,2.7896,0,2.7483,2.7504,2.7532,2.757,2.7594,2.7604,2.7635,2.7655,2.7685,2.7715,2.7743,2.7783,2.7817,2.7849,2.7885,2.7902,2.7909,2.7911,2.791,2.7916,2.7898,2.789,2.7905,2.7905,2.7905,2.7905,2.7905,2.7905,2.7493,2.7525,2.7541,2.7586,2.7608,2.7641,2.7659,2.7683,2.7707,2.7751,2.7779,2.7799,2.7831,2.787,2.7902,2.7911,2.7924,2.7924,2.7935,2.7918,2.7916,2.7915,2.7909,2.7927,2.7927,2.7951,2.7951,2.7951]}]]